EW5186 Weather Reports


time (UTC)temp
C
wind
direction
speed
KPH
gust
KPH
rain 1hr
cm
rain 24hr
cm
rain mn
cm
humidity
%
barometer
mb
20260902093031 16 305 0.0 1.6 0.00 0.51 0.00 93 1021.6
20260902091512 16 309 0.0 1.6 0.00 0.51 0.00 93 1021.5
20260902090012 16 286 0.0 1.6 0.00 0.56 0.00 94 1021.3
20260902084605 16 120 0.0 0.0 0.00 0.56 0.00 94 1021.3
20260902083107 16 120 0.0 1.6 0.00 0.56 0.00 94 1021.4
20260902081557 16 146 0.0 3.2 0.00 0.56 0.00 94 1021.1
20260902080112 16 257 0.0 1.6 0.00 0.58 0.00 94 1021.2
20260902074557 16 291 0.0 1.6 0.00 0.58 0.00 94 1021.0
20260902073055 16 234 0.0 0.0 0.00 0.58 0.00 94 1021.2
20260902071555 16 195 0.0 1.6 0.00 0.58 0.00 94 1021.0
20260902070053 16 238 0.0 0.0 0.00 0.61 0.00 95 1021.0
20260902064536 16 297 0.0 1.6 0.00 0.61 0.00 95 1020.8
20260902063036 16 290 0.0 1.6 0.00 0.61 0.00 95 1020.9
20260902061521 16 101 0.0 3.2 0.00 0.61 0.00 95 1020.7
20260902060018 16 276 0.0 0.0 0.00 0.61 0.00 95 1020.7
20260902054558 16 13 0.0 0.0 0.00 0.61 0.00 95 1021.0
20260902053058 16 15 0.0 1.6 0.00 0.61 0.00 95 1021.0
20260902051539 16 271 0.0 0.0 0.00 0.61 0.00 95 1020.9
20260902050037 16 271 0.0 0.0 0.00 0.61 0.00 95 1020.7
20260902044520 16 274 0.0 1.6 0.00 0.61 0.00 95 1020.6
20260902043019 16 274 0.0 0.0 0.00 0.61 0.00 95 1020.6
20260902041600 16 5 0.0 0.0 0.00 0.61 0.00 95 1020.6
20260902034540 16 315 0.0 0.0 0.00 0.61 0.61 95 1020.3
20260902033047 16 160 0.0 0.0 0.00 0.61 0.61 94 1020.0
20260902031521 16 143 0.0 0.0 0.00 0.61 0.61 94 1020.4
20260902030020 16 91 0.0 4.8 0.00 0.61 0.61 94 1020.3
20260902024601 16 96 0.0 1.6 0.00 0.61 0.61 94 1020.1
20260902023102 16 78 0.0 3.2 0.00 0.61 0.61 94 1019.9
20260902021547 16 302 0.0 4.8 0.00 0.61 0.61 94 1019.9
20260902020047 16 342 0.0 1.6 0.00 0.61 0.61 95 1019.7
20260902014545 16 281 0.0 1.6 0.00 0.61 0.61 94 1019.5
20260902013044 16 131 0.0 3.2 0.00 0.61 0.61 94 1019.3
20260902011543 16 119 0.0 6.4 0.00 0.61 0.61 94 1018.8
20260902010047 16 131 0.0 6.4 0.00 0.61 0.61 94 1019.1
20260902004542 16 321 1.6 8.0 0.00 0.61 0.61 94 1018.8
20260902003042 16 116 0.0 6.4 0.00 0.61 0.61 94 1018.8
20260902001526 16 120 1.6 8.0 0.05 0.61 0.61 94 1018.7
20260902000027 16 295 0.0 1.6 0.05 0.61 0.61 94 1018.6
20260901234505 16 286 0.0 3.2 0.08 0.61 0.61 94 1018.7
20260901233005 16 82 0.0 3.2 0.20 0.61 0.61 94 1018.6
20260901231545 16 101 0.0 1.6 0.15 0.56 0.56 93 1018.6
20260901230047 16 89 1.6 6.4 0.15 0.56 0.56 93 1018.5
20260901224532 17 103 1.6 8.0 0.13 0.53 0.53 93 1018.3
20260901223030 17 155 0.0 1.6 0.00 0.41 0.41 92 1018.0
20260901221531 17 304 0.0 8.0 0.00 0.41 0.41 91 1018.0
20260901220029 17 131 0.0 3.2 0.00 0.41 0.41 91 1017.9
20260901214525 17 106 0.0 8.0 0.00 0.41 0.41 91 1017.9
20260901213052 17 96 0.0 4.8 0.00 0.41 0.41 92 1017.6
20260901211536 18 77 0.0 6.4 0.00 0.41 0.41 92 1017.6
20260901210023 18 13 0.0 8.0 0.00 0.41 0.41 93 1017.3
20260901204503 18 65 4.8 14.5 0.00 0.41 0.41 93 1017.1
20260901203006 18 69 0.0 14.5 0.00 0.41 0.41 93 1016.9
20260901201544 18 300 0.0 11.3 0.00 0.41 0.41 94 1016.8
20260901200052 18 175 3.2 9.7 0.00 0.41 0.41 94 1016.7
20260901194524 18 101 3.2 12.9 0.00 0.41 0.41 94 1016.8
20260901193024 19 206 3.2 8.0 0.00 0.41 0.41 94 1016.5
20260901191502 19 45 0.0 8.0 0.00 0.41 0.41 93 1016.4
20260901190005 20 122 3.2 14.5 0.00 0.41 0.41 92 1016.4
20260901184603 22 88 0.0 1.6 0.00 0.41 0.41 92 1016.1
20260901183051 22 126 0.0 1.6 0.00 0.41 0.41 92 1016.2
20260901181546 22 236 0.0 3.2 0.00 0.41 0.41 93 1016.3
20260901180043 22 85 0.0 1.6 0.00 0.41 0.41 93 1016.5
20260901174542 22 47 0.0 4.8 0.00 0.41 0.41 93 1016.6
20260901173038 22 211 0.0 6.4 0.00 0.41 0.41 93 1016.3
20260901171535 22 84 0.0 3.2 0.00 0.41 0.41 94 1016.2
20260901170034 22 101 0.0 6.4 0.00 0.41 0.41 94 1016.6
20260901164533 22 226 0.0 4.8 0.00 0.41 0.41 94 1016.7
20260901163013 21 105 0.0 4.8 0.00 0.41 0.41 94 1016.9
20260901161512 21 89 0.0 4.8 0.00 0.41 0.41 93 1017.0
20260901160055 22 226 0.0 3.2 0.00 0.41 0.41 94 1017.2
20260901154553 21 138 0.0 3.2 0.03 0.41 0.41 94 1017.3
20260901153042 22 109 0.0 3.2 0.08 0.41 0.41 95 1017.2
20260901151540 21 142 0.0 0.0 0.10 0.41 0.41 94 1017.3
20260901150038 21 131 0.0 4.8 0.10 0.41 0.41 95 1017.3
20260901144535 21 141 0.0 4.8 0.15 0.38 0.38 95 1017.5
20260901143037 21 243 0.0 8.0 0.18 0.33 0.33 95 1017.7
20260901141539 21 70 0.0 1.6 0.15 0.30 0.30 95 1017.6
20260901140031 20 83 0.0 1.6 0.15 0.30 0.30 95 1017.8
20260901134530 20 96 0.0 0.0 0.08 0.23 0.23 95 1017.8
20260901133011 20 96 0.0 3.2 0.00 0.15 0.15 95 1017.8
20260901131521 20 331 0.0 1.6 0.00 0.15 0.15 95 1017.7
20260901130059 20 72 0.0 3.2 0.03 0.15 0.15 95 1017.8
20260901124558 20 72 0.0 6.4 0.03 0.15 0.15 96 1017.9
20260901123104 20 136 0.0 6.4 0.03 0.15 0.15 96 1017.8
20260901121556 20 269 0.0 1.6 0.03 0.15 0.15 96 1017.8
20260901120057 20 130 0.0 1.6 0.00 0.15 0.13 96 1017.8
20260901114556 20 170 0.0 4.8 0.00 0.15 0.13 96 1017.8
20260901113102 20 131 0.0 1.6 0.00 0.15 0.13 96 1017.7
20260901111554 20 224 0.0 1.6 0.00 0.15 0.13 96 1017.8
20260901110036 20 203 0.0 1.6 0.00 0.15 0.13 96 1017.8
20260901104535 20 91 0.0 1.6 0.00 0.15 0.13 96 1017.7
20260901103025 20 199 0.0 1.6 0.00 0.15 0.13 95 1017.6
20260901101525 20 103 0.0 1.6 0.00 0.15 0.13 95 1017.7
20260901100023 19 148 0.0 0.0 0.03 0.15 0.13 95 1017.6
20260901094523 19 150 0.0 0.0 0.05 0.15 0.13 95 1017.7